Weather History for KLRD - May, 2012

Change the Weather History Date:

Sunday, May 6, 2012

  Actual Average Record
Temperature  
Mean Temperature 88 °F -  
Max Temperature 101 °F - 109 °F (1998)
Min Temperature 74 °F - 41 °F (1917)
Degree Days  
Heating Degree Days 0 0  
Month to date heating degree days 0 0  
Since 1 July heating degree days 674 926  
Cooling Degree Days 23 15  
Month to date cooling degree days 126 89  
Year to date cooling degree days 1051 689  
Growing Degree Days 36 (Base 50)    
Moisture  
Dew Point 67 °F    
Average Humidity 54    
Maximum Humidity 84    
Minimum Humidity 26    
Precipitation  
Precipitation 0.00 in 0.08 in 2.24 in (1963)
Month to date precipitation 0.16 0.45  
Year to date precipitation 1.43 4.83  
Sea Level Pressure  
Sea Level Pressure 29.80 in    
Wind  
Wind Speed 12 mph (SE)    
Max Wind Speed 23 mph    
Max Gust Speed 29 mph    
Visibility 10 miles    
Events      
T = Trace of Precipitation, MM = Missing Value Source: NWS Daily Summary

Daily Weather History Graph

Daily Weather History Graph

Search for Another Location

Airport or City:

Trip Planner

Search our weather history database for the weather conditions in past years. The results will help you decide how hot, cold, wet, or windy it might be!

Date:

Astronomy

May. 06, 2012 Rise Set
Actual Time 6:54 AM CDT 8:14 PM CDT
Civil Twilight 6:29 AM CDT 8:39 PM CDT
Nautical Twilight 5:59 AM CDT 9:09 PM CDT
Astronomical Twilight 5:28 AM CDT 9:40 PM CDT
Moon 9:15 PM CDT (5/6) 7:10 AM CDT (5/6)
Length of Visible Light 14h 10m
Length of Day
13h 20m
Full, 100% of the Moon is Illuminated
May 6
Full
May 12
Last Quarter
May 20
New
May 28
First Quarter
Jun 4
Full

Hourly Weather History & Observations

Time (CDT) Temp. Heat Index Dew Point Humidity Pressure Visibility Wind Dir Wind Speed Gust Speed Precip Events Conditions
12:56 AM 81.9 °F 85.6 °F 70.0 °F 67% 29.84 in 10.0 mi SSE 17.3 mph 24.2 mph N/A   Clear
1:56 AM 81.0 °F 84.7 °F 70.9 °F 71% 29.82 in 10.0 mi SSE 21.9 mph 27.6 mph N/A   Clear
2:56 AM 79.9 °F - 70.9 °F 74% 29.79 in 10.0 mi SSE 19.6 mph - N/A   Clear
3:56 AM 79.0 °F - 70.0 °F 74% 29.76 in 10.0 mi SSE 13.8 mph - N/A   Clear
4:56 AM 77.9 °F - 68.9 °F 74% 29.74 in 10.0 mi Calm Calm - N/A   Clear
5:56 AM 75.9 °F - 68.9 °F 79% 29.75 in 10.0 mi NNW 6.9 mph - N/A   Clear
6:56 AM 73.9 °F - 68.9 °F 84% 29.82 in 9.0 mi East 11.5 mph - N/A   Clear
7:56 AM 75.9 °F - 70.0 °F 82% 29.84 in 8.0 mi ENE 16.1 mph 24.2 mph N/A   Clear
8:56 AM 79.9 °F - 70.0 °F 72% 29.85 in 9.0 mi East 17.3 mph - N/A   Clear
9:56 AM 83.8 °F 88.1 °F 70.0 °F 63% 29.86 in 10.0 mi East 17.3 mph - N/A   Scattered Clouds
10:56 AM 86.0 °F 89.7 °F 68.9 °F 56% 29.86 in 10.0 mi SE 16.1 mph - N/A   Partly Cloudy
11:56 AM 88.9 °F 93.0 °F 68.9 °F 51% 29.86 in 10.0 mi ESE 11.5 mph - N/A   Scattered Clouds
12:56 PM 90.9 °F 94.0 °F 66.9 °F 45% 29.85 in 10.0 mi SE 9.2 mph 18.4 mph N/A   Scattered Clouds
1:56 PM 95.0 °F 97.9 °F 65.8 °F 38% 29.82 in 10.0 mi ESE 10.4 mph - N/A   Clear
2:56 PM 97.9 °F 100.3 °F 63.9 °F 33% 29.79 in 10.0 mi South 10.4 mph - N/A   Clear
3:56 PM 97.9 °F 99.8 °F 63.0 °F 32% 29.77 in 10.0 mi SSE 6.9 mph - N/A   Clear
4:56 PM 99.9 °F 100.9 °F 61.0 °F 28% 29.74 in 10.0 mi Variable 3.5 mph - N/A   Clear
5:56 PM 100.9 °F 101.6 °F 59.9 °F 26% 29.73 in 10.0 mi South 4.6 mph - N/A   Clear
6:56 PM 100.4 °F 101.3 °F 60.8 °F 27% 29.76 in 10.0 mi SE 4.6 mph - N/A   Clear
7:56 PM 97.9 °F 98.3 °F 61.0 °F 29% 29.73 in 10.0 mi SE 8.1 mph - N/A   Clear
8:56 PM 95.0 °F 95.6 °F 61.9 °F 33% 29.76 in 10.0 mi SE 11.5 mph - N/A   Clear
9:56 PM 90.9 °F 94.0 °F 66.9 °F 45% 29.78 in 10.0 mi SSE 15.0 mph - N/A   Clear
10:56 PM 88.0 °F 92.1 °F 68.9 °F 53% 29.81 in 10.0 mi SSE 17.3 mph - N/A   Clear
11:56 PM 84.9 °F 88.8 °F 68.9 °F 59% 29.82 in 10.0 mi SSE 15.0 mph - N/A   Unknown